Location: Gouy
(50.0008°N, 3.2556°E)
Time: 19:55:15
(UTC+00:00)

COSMOS 2406 - Pass Details

Date: 23 May 2024
Orbit: 844 x 862 km, 71.0° (Epoch: 16 June)

Event Time Altitude Azimuth Distance (km) Brightness Sun altitude
Exits shadow 01:19:31 24° 220° (SW) 1,697 4.2 -16.2°
Maximum altitude 01:23:03 73° 301° (WNW) 903 3.3 -16.0°
Drops below altitude 10° 01:28:50 10° 27° (NNE) 2,509 7.1 -15.6°
Sets 01:31:18 0° 29° (NNE) 3,448 8.3 -15.4°
